sat.trackr.live / text

‹ back to catalog

STARLINK-32355

NORAD 61634 · 2024-191P

PAYLOAD ACTIVE UNKNOWN

§ Identity

Operator
Country
US
Launch date
2024-10-23
Launch site
AFETR
Launch vehicle
Mass (kg)
RCS (m²)

Purposes: comms

External: N2YO · Heavens-Above · Gunter

§ Orbital elements

Epoch: 2026-05-25T04:45:50.450112Z

Period
94.27 min
Inclination
43.0010°
Eccentricity
0.0000728
Mean motion
15.27578583 rev/d
Perigee alt
482.6 km
Apogee alt
483.6 km
Semi-major
6,861.2 km
B*
2.1532e-5
RAAN
86.2150°
Arg perigee
233.0403°
Mean anomaly
127.0382°
Rev number
8,919

§ Raw data

STARLINK-323551 61634U 24191P   26145.19850058  .00000331  00000+0  21532-4 0  99942 61634  43.0010  86.2150 0000728 233.0403 127.0382 15.27578583 89195

JSON: /api/v1/satellites/61634 · /tle

For live sub-satellite position, see the globe view (requires WebGL).

§ Visibility from observer

Set your observer location to see the next 7 days of passes ≥ 10°. The values pass through the URL so the page stays shareable.

No JS? Fill the form by hand. The geolocation button needs JavaScript.